Probability
0 0 0 0 0 0 0 0 0 0 0 0 0 0 0 0 0 0 0 0 0 0 0 0 0 0 0 0 0 0 0 0 0 0 0 0 0 0 0 0 0 0 0
0 0 0 0 0 0 0 0 0 0 0 0 0 0 0 0 0 0 0 0 0 0 0 0 0 0 0 0 0 0 0 0 0 0 0 0 0 0 0 0 0 0 0
0 0 0 0 0 0 0 0 0 0 0 0 0 0 0 0 0 0 0 0 0 0 0 0 0 0 0 0 0 0 0 0 0 0 0 0 0 0 0 0 0 0 0
0 0 0 0 0 0 0 0 0 0 0 0 0 0 0 0 0 0 0 0 0 0 0 0 0 0 0 0 0 0 0 0 0 0 0 0 0 0 0 0 0 0 0
0 0 0 0 0 0 0 0 0 0 0 0 0 0 0 0 0 0 0 0 0 0 0 0 0 0 0 0 0 0 0 0 0 0 0 0 0 0 0 0 0 0 0
0 0 0 0 0 0 0 0 0 0 0 0 0 0 0 0 0 0 0 0 0 0 0 0 0 0 0 0 0 0 0 0 0 0 0 0 0 0 0 0 0 0 0
0 0 0 0 0 0 0 0 0 0 0 0 0 0 0 0 0 0 0 0 0 0 0 0 0 0 0 0 0 0 0 0 0 0 0 0 0 0 0 0 0 0 0
0 0 0 0 0 0 0 0 0 0 0 0 0 0 0 0 0 0 0 0 0 0 0 0 0 0 0 0 0 0 0 0 0 0 0 0 0 0 0 0 0 0 0
0 0 0 0 0 0 0 0 0 0 0 0 0 0 0 0 0 0 0 0 0 0 0 0 0 0 0 0 0 0 0 0 0 0 0 0 0 0 0 0 0 0 0
0 0 0 0 0 0 0 0 0 0 0 0 0 0 0 0 0 0 0 0 0 0 0 0 0 0 0 0 0 0 0 0 0 0 0 0 0 0 0 0 0 0 0
0 0 0 0 0 0 0 0 0 0 0 0 0 0 0 0 0 0 0 0 0 0 0 0 0 0 0 0 0 0 0 0 0 0 0 0 0 0 0 0 0 0 0
0 0 0 0 0 0 0 0 0 0 0 0 0 0 0 0 0 0 0 0 0 0 0 0 0 0 0 0 0 0 0 0 0 0 0 0 0 0 0 0 0 0 0
0 0 0 0 0 0 0 0 0 0 0 0 0 0 0 0 0 0 0 0 0 0 0 0 0 0 0 0 0 0 0 0 0 0 0 0 0 0 0 0 0 0 0
0 0 0 0 0 0 0 0 0 0 0 0 0 0 0 0 0 0 0 0 0 0 0 0 0 0 0 0 0 0 0 0 0 0 0 0 0 0 0 0 0 0 0
0 0 0 0 0 0 0 0 0 0 0 0 0 0 0 0 0 0 0 0 0 0 0 0 0 0 0 0 0 0 0 0 0 0 0 0 0 0 0 0 0 0 0
0 0 0 0 0 0 0 0 0 0 0 0 0 0 0 0 0 0 0 0 0 0 0 0 0 0 0 0 0 0 0 0 0 0 0 0 0 0 0 0 0 0 0
0 0 0 0 0 0 0 0 0 0 0 0 0 0 0 0 0 0 0 0 0 0 0 0 0 0 0 0 0 0 0 0 0 0 0 0 0 0 0 0 0 0 0
0 0 0 0 0 0 0 0 0 0 0 0 0 0 0 0 0 0 0 0 0 0 0 0 0 0 0 0 0 0 0 0 0 0 0 0 0 0 0 0 0 0 0
0 0 0 0 0 0 0 0 0 0 0 0 0 0 0 0 0 0 0 0 0 0 0 0 0 0 0 0 0 0 0 0 0 0 0 0 0 0 0 0 0 0 0
0 0 0 0 0 0 0 0 0 0 0 0 0 0 0 0 0 0 0 0 0 0 0 0 0 0 0 0 0 0 0 0 0 0 0 0 0 0 0 0 0 0 0
0 0 0 0 0 0 0 0 0 0 0 0 0 0 0 0 0 0 0 0 0 0 0 0 0 0 0 0 0 0 0 0 0 0 0 0 0 0 0 0 0 0 0
0 0 0 0 0 0 0 0 0 0 0 0 0 0 0 0 0 0 0 0 0 0 0 0 0 0 0 0 0 0 0 0 0 0 0 0 0 0 0 0 0 0 0
0 0 0 0 0 0 0 0 0 0 0 0 0 0 0 0 0 0 0 0 0 0 0 0 0 0 0 0 0 0 0 0 0 0 0 0 0 0 0 0 0 0 0
0 0 0 0 0 0 0 0 0 0 0 0 0 0 0 0 0 0 0 0 0 0 0 0 0 0 0 0 0 0 0 0 0 0 0 0 0 0 0 0 0 0 0
0 0 0 0 0 0 0 0 0 0 0 0 0 0 0 0 0 0 0 0 0 0 0 0 0 0 0 0 0 0 0 0 0 0 0 0 0 0 0 0 0 0 0
0 0 0 0 0 0 0 0 0 0 0 0 0 0 0 0 0 0 0 0 0 0 0 0 0 0 0 0 0 0 0 0 0 0 0 0 0 0 0 0 0 0 0
Wind_Speed
8 8 9 9 9 9 9 10 11 11 12 13 14 13 13 13 11 10 11 13 12 12 12 12 12 10 8 7 7 8 9 10 13 12 9 10 12 11 9 8 9 10 11
8 8 9 10 10 10 10 11 11 12 12 13 14 14 14 14 13 12 13 13 12 12 12 11 10 8 8 7 7 8 8 10 12 14 10 9 12 10 8 8 8 10 10
8 9 9 10 10 10 11 11 11 12 12 14 14 15 16 16 16 15 13 12 11 10 9 8 8 8 9 7 8 7 8 9 9 10 10 8 7 6 6 6 9 10 11
9 9 9 10 10 10 11 11 11 12 12 13 15 16 17 18 15 11 8 6 5 5 6 7 8 8 11 10 7 8 10 10 8 7 7 6 6 5 4 4 6 7 8
9 10 10 10 10 10 11 11 11 12 14 13 15 17 18 16 11 9 8 9 8 8 9 9 9 13 19 15 11 10 10 9 8 7 5 4 3 2 2 2 5 5 7
8 9 10 11 11 11 11 11 12 12 12 13 14 16 18 16 22 26 18 11 10 10 10 10 10 10 15 21 22 20 18 13 11 9 7 6 5 4 3 3 1 3 5
8 9 10 10 11 12 12 12 12 11 11 12 13 14 16 19 25 25 24 12 11 10 10 10 11 13 11 7 15 19 17 21 19 11 9 8 7 7 6 5 3 2 3
8 9 9 10 10 11 10 10 9 8 9 9 10 13 14 19 26 23 21 11 9 10 11 11 10 11 13 12 10 10 9 12 15 10 8 9 10 8 5 5 5 5 5
8 9 10 9 10 10 10 10 8 8 7 8 9 11 13 16 25 22 18 7 8 10 11 13 13 9 23 22 14 12 11 11 16 20 19 17 19 18 13 5 3 4 3
9 9 9 9 10 9 10 8 7 7 8 9 10 9 11 12 22 23 17 7 8 8 9 12 18 19 23 23 13 12 13 12 13 14 14 15 12 13 16 8 5 3 2
8 8 9 9 9 8 9 7 8 8 8 8 8 9 9 13 18 23 20 6 8 9 8 8 10 22 23 24 19 13 17 14 11 11 10 9 9 8 9 8 7 4 3
7 7 8 8 8 9 8 8 7 7 6 7 7 8 7 9 14 17 22 19 15 9 9 7 11 22 22 23 18 21 23 17 9 9 9 10 10 10 10 10 9 7 3
7 7 7 7 6 7 6 7 7 6 4 5 6 6 7 7 8 16 18 19 20 9 8 17 19 22 19 15 22 24 18 11 10 10 11 10 10 10 9 9 9 7 6
6 7 6 6 6 6 6 6 5 6 5 4 5 5 6 7 6 4 4 6 11 9 7 13 18 20 16 17 17 14 11 11 11 10 10 10 10 10 9 10 9 8 6
6 6 6 7 5 5 6 6 7 5 8 7 4 4 5 5 8 14 8 6 4 7 7 7 7 8 10 10 10 10 10 11 11 10 10 11 11 11 11 10 10 9 8
5 5 5 5 5 5 5 6 11 12 16 16 15 12 8 12 14 14 14 15 16 16 9 6 7 8 9 9 9 10 10 10 10 10 10 11 11 11 11 10 10 10 11
4 5 4 5 5 5 6 6 7 10 14 14 15 16 14 15 15 15 13 13 13 13 5 4 5 6 6 6 6 7 7 8 8 8 9 10 10 10 10 11 11 11 11
4 6 6 4 5 5 5 6 6 8 9 8 10 14 15 15 14 14 13 9 6 5 3 3 4 4 4 5 5 5 6 6 6 7 8 9 9 9 10 11 11 12 11
4 4 4 4 4 5 5 5 6 7 8 8 8 9 13 13 13 12 10 3 3 4 3 3 3 3 3 4 4 4 5 5 5 5 6 7 8 8 9 9 10 15 13
3 9 8 4 5 5 5 5 6 7 8 8 8 8 8 6 5 7 5 4 4 4 4 4 4 3 3 3 3 4 4 4 5 5 5 5 6 6 7 9 9 9 9
3 5 9 6 4 5 4 5 6 7 8 9 8 11 18 7 7 8 7 6 5 5 5 4 4 4 3 3 3 3 3 3 3 3 4 4 4 4 5 6 7 7 8
3 3 3 4 4 5 5 5 5 6 8 9 8 10 19 10 7 7 7 7 6 6 5 5 5 4 4 4 3 3 3 3 3 3 3 3 3 3 4 4 5 6 6
2 3 3 4 4 7 6 5 5 6 8 8 8 9 9 9 10 10 9 8 6 6 6 6 6 5 5 5 5 5 4 4 3 2 2 2 2 2 2 3 4 4 5
2 3 3 3 4 4 4 5 5 7 8 8 8 9 9 9 9 11 11 10 9 7 6 6 7 9 10 8 6 6 6 6 4 4 4 3 1 0 1 2 2 3 3
1 2 3 3 4 4 5 5 6 7 8 9 9 9 10 10 10 10 10 10 12 11 10 8 7 9 13 14 11 9 13 16 13 7 5 4 3 3 2 1 1 2 2
1 1 2 3 3 4 4 5 6 7 7 8 9 9 9 9 10 10 10 11 12 11 11 10 9 11 13 12 14 17 20 20 18 17 8 5 6 5 4 3 3 2 3
Wind_Direction
319 313 316 315 316 317 318 319 319 316 315 317 318 315 312 308 304 301 298 298 297 297 297 298 297 294 288 282 278 274 270 266 272 280 279 283 282 283 293 301 308 312 304
318 318 320 318 318 318 319 318 317 315 316 318 317 315 313 311 306 299 296 296 293 293 298 302 307 316 313 302 293 286 281 271 267 274 276 274 273 275 283 292 303 300 293
323 327 325 323 323 322 320 318 316 317 318 319 320 318 318 315 307 298 289 284 283 288 299 316 337 350 345 333 324 325 310 293 267 259 264 264 266 263 268 275 279 281 285
336 331 331 330 327 323 320 318 319 322 323 324 324 324 324 320 314 310 306 309 319 333 349 351 350 4 358 345 345 345 334 327 307 271 255 252 257 256 242 236 254 269 277
334 337 337 333 328 327 327 325 326 330 331 327 328 330 331 331 350 24 29 35 31 18 9 1 356 11 11 4 5 4 353 351 349 334 303 270 257 264 254 232 233 263 272
332 333 333 336 335 333 332 334 335 334 331 332 332 334 338 343 22 48 48 33 25 16 7 358 356 2 14 9 9 13 8 5 7 1 352 346 347 352 340 315 252 233 249
330 331 333 334 333 333 336 338 338 334 335 336 336 340 342 347 24 40 40 31 19 12 4 358 2 357 16 4 1 9 7 8 13 10 359 350 342 346 335 315 308 256 257
330 331 333 333 331 331 336 338 336 333 336 336 336 344 346 352 19 37 33 21 13 8 1 355 356 350 6 21 0 359 3 1 4 7 3 352 346 349 330 294 294 294 272
338 337 335 335 335 336 340 338 335 333 333 337 345 348 349 347 7 32 37 6 9 3 2 359 2 358 8 20 10 0 3 0 360 5 9 6 2 358 2 332 291 248 235
342 337 336 339 338 338 339 336 338 336 341 347 350 350 347 344 1 22 42 21 10 4 1 357 1 13 10 17 15 3 8 1 353 354 359 358 355 351 1 357 328 293 261
335 335 340 342 339 346 339 336 341 343 339 342 348 349 347 354 0 15 32 45 19 6 4 355 356 12 12 15 18 12 13 10 353 352 353 354 353 353 351 347 335 308 292
332 337 338 339 345 355 336 334 337 339 335 339 347 351 346 343 356 10 22 30 36 14 358 350 0 14 14 14 16 15 14 12 360 356 357 358 357 354 347 343 339 336 340
332 332 330 336 341 342 334 332 336 341 338 343 350 350 343 341 339 5 16 20 24 25 1 12 14 16 13 9 12 16 13 6 4 1 358 354 349 348 350 351 352 349 14
331 327 330 337 340 337 342 342 337 337 338 334 332 333 330 332 324 320 336 5 13 18 7 4 13 13 15 11 11 11 9 8 9 1 354 349 349 357 7 7 7 2 22
329 327 330 341 332 332 339 339 342 328 354 352 328 310 311 315 341 1 10 3 1 15 11 3 5 6 9 8 7 8 8 8 8 3 1 357 359 4 10 13 19 27 41
335 330 321 328 334 335 326 331 348 355 356 356 352 352 341 345 350 356 1 4 6 14 18 3 6 6 7 5 5 4 7 10 7 5 7 5 3 5 9 15 24 33 40
329 316 313 333 330 331 332 331 329 335 345 349 349 346 348 350 351 348 355 3 2 11 12 348 351 353 352 353 354 356 359 360 2 7 11 10 9 9 12 18 22 29 35
327 322 332 313 315 317 319 320 320 323 326 326 332 335 338 343 346 342 348 358 349 355 338 330 331 336 341 344 347 349 350 356 2 6 9 12 14 17 19 20 24 31 32
325 310 310 311 313 314 317 324 325 324 323 322 322 325 330 327 330 336 343 334 305 309 312 314 314 320 327 333 336 341 345 351 357 0 8 9 13 22 27 26 29 33 39
316 335 343 332 323 323 323 330 335 334 332 330 329 323 312 308 314 318 318 295 286 282 283 288 294 300 309 316 322 332 340 347 354 0 2 5 7 18 26 30 32 36 38
312 322 342 337 317 314 318 330 333 336 338 337 334 335 349 347 324 312 305 295 284 278 273 269 270 278 281 285 291 306 321 329 339 346 354 2 9 15 17 26 33 38 42
309 310 312 312 313 321 342 334 329 337 338 335 336 341 352 351 331 320 308 295 280 269 264 259 254 248 244 246 252 263 276 289 304 321 336 353 8 19 23 27 31 35 41
316 318 321 322 318 338 348 331 337 339 337 331 336 344 347 346 345 342 335 324 302 281 264 253 253 250 238 231 225 222 232 243 241 235 263 314 351 16 32 38 37 40 42
317 322 328 329 329 331 331 335 339 341 340 335 339 341 341 339 338 337 337 335 328 311 281 259 250 249 245 237 227 221 221 226 218 210 209 214 231 288 58 58 54 55 53
320 324 328 328 329 330 330 334 338 340 341 340 340 338 336 336 335 333 331 331 332 329 318 294 263 252 248 243 233 223 231 237 232 208 190 186 191 187 173 148 117 94 82
192 308 316 317 323 325 327 330 330 333 336 337 335 330 331 333 332 330 329 331 332 329 327 321 302 279 259 245 237 232 234 234 232 225 191 175 181 183 178 176 171 151 129